sat.trackr.live / text

‹ back to catalog

ARABSAT-5A

NORAD 36745 · 2010-032B

PAYLOAD ACTIVE UNKNOWN

§ Identity

Operator
Country
AB
Launch date
2010-06-26
Launch site
FRGUI
Launch vehicle
Mass (kg)
RCS (m²)
11.14

Purposes: comms

External: N2YO · Heavens-Above · Gunter

§ Orbital elements

Epoch: 2026-09-09T03:56:03.704064Z

Period
1,436.06 min
Inclination
0.2485°
Eccentricity
0.0004329
Mean motion
1.00274100 rev/d
Perigee alt
35,767.7 km
Apogee alt
35,804.2 km
Semi-major
42,164.1 km
B*
0.0000e+0
RAAN
76.6926°
Arg perigee
88.7442°
Mean anomaly
272.3032°
Rev number
5,948

§ Raw data

ARABSAT-5A1 36745U 10032B   26252.16393176  .00000132  00000+0  00000+0 0  99982 36745   0.2485  76.6926 0004329  88.7442 272.3032  1.00274100 59483

JSON: /api/v1/satellites/36745 · /tle

For live sub-satellite position, see the globe view (requires WebGL).

§ Visibility from observer

Set your observer location to see the next 7 days of passes ≥ 10°. The values pass through the URL so the page stays shareable.

No JS? Fill the form by hand. The geolocation button needs JavaScript.